Location: River Stiffkey
(52.9667°N, 0.9500°E)
Time: 02:28:09
(UTC+00:00)

Daily predictions for brighter satellites

Satellite Brightness Start Highest point End
(mag) Time Altitude Azimuth Time Altitude Azimuth Time Altitude Azimuth
Cosmos 2297 Rocket 3.0 00:02:35 10° NNW 00:08:08 51° NE 00:13:37 10° SE
Cosmos 1782 3.1 00:06:05 10° N 00:09:42 54° ENE 00:11:51 22° SSE
Cosmos 2112 Rocket 4.3 00:08:28 10° NNW 00:13:43 67° ENE 00:18:23 13° SE
BREEZE-M DEB (TANK) 3.8 00:11:57 10° WSW 00:16:04 65° SSE 00:31:40 10° E
SL-08 ROCKET BODY 4.4 00:11:57 21° S 00:16:09 84° E 00:22:08 10° NNE
Cosmos 1818 4.4 00:11:32 10° NW 00:16:26 35° WSW 00:19:10 22° SSW
Cosmos 1975 Rocket 4.0 00:14:30 16° SW 00:17:35 40° WNW 00:21:42 10° N
Cosmos 2058 3.2 00:18:00 24° SSE 00:20:07 52° E 00:23:58 10° NNE
Cosmos 44 3.2 00:19:22 24° SSW 00:21:42 54° SE 00:26:02 10° NE
Cosmos 2228 4.1 00:19:57 10° NNW 00:23:41 32° W 00:25:54 19° SW
ATLAS 5 CENTAUR R/B 4.2 00:25:35 10° NW 00:28:07 18° N 00:30:57 10° NE
Cosmos 1680 Rocket 3.5 00:23:55 10° NNW 00:29:12 84° WSW 00:33:13 18° SSE
RESURS DK-1 2.7 00:27:05 10° NNW 00:31:04 60° NE 00:34:58 10° SE
Cosmos 2285 Rocket 4.4 00:28:37 13° SW 00:34:20 61° WNW 00:40:43 10° NNE
Cosmos 2098 Rocket 4.3 00:32:58 10° NW 00:34:35 14° W 00:35:31 13° WSW
Cosmos 923 Rocket 4.2 00:31:30 10° NNW 00:36:35 57° WSW 00:39:56 21° S
H-2A R/B 2.6 00:34:14 18° SSE 00:36:51 60° ENE 00:40:37 10° N
Cosmos 1656 4.3 00:33:45 20° S 00:37:17 44° ESE 00:42:33 10° NE
SeaSat 1 3.3 00:34:15 10° ESE 00:38:57 50° NE 00:43:42 10° NNW
Cosmos 2227 Rocket 3.3 00:34:07 10° NNW 00:39:34 44° NE 00:44:59 10° ESE
Cosmos 1400 Rocket 3.4 00:37:59 10° NNW 00:41:38 40° W 00:43:29 24° SSW
Cosmos 1356 Rocket 4.1 00:40:18 10° N 00:44:08 47° ENE 00:47:29 13° SE
ATLAS 2AS CENTAUR R/B 3.9 00:38:26 10° NW 00:44:58 44° NNE 00:51:22 10° E
BlueWalker 3 1.8 00:41:19 10° W 00:45:00 85° N 00:48:40 10° E
Cosmos 1602 4.0 00:46:12 23° SSE 00:47:50 43° E 00:50:56 10° NNE
Cosmos-2242 4.3 00:45:01 10° N 00:48:54 35° ENE 00:52:47 10° SE
Cosmos 1937 Rocket 3.4 00:47:15 20° SSW 00:50:51 87° WNW 00:56:01 10° NNE
ISS -3.9 00:49:39 10° W 00:53:00 69° S 00:56:20 10° ESE
H-2A R/B 4.4 00:52:11 10° ENE 00:54:16 13° E 00:56:21 10° ESE
Aureole 1 Rocket 4.5 00:50:57 14° SW 00:56:15 63° WNW 01:03:30 10° NNE
Cosmos 2315 Rocket 4.1 00:49:53 10° NNW 00:56:16 75° W 01:01:14 18° S
Cosmos 858 Rocket 4.5 00:54:37 20° SSW 00:58:12 83° ESE 01:03:25 10° NNE
Cosmos 1441 Rocket 4.3 00:58:03 16° SSE 01:00:16 31° E 01:03:25 10° NNE
Cosmos 1933 3.2 01:00:34 10° NNW 01:04:27 84° W 01:07:01 20° S
Landsat 4 2.8 01:03:33 26° SSE 01:05:00 88° WSW 01:07:51 10° NNW
Cosmos 1900 4.4 01:05:15 17° SW 01:09:13 87° NW 01:14:22 10° NE
DNEPR-1 R/B 4.5 01:06:42 10° WNW 01:10:21 29° WSW 01:12:13 21° SSW
Cosmos 1536 Rocket 4.4 01:07:41 17° SW 01:10:38 41° WNW 01:14:49 10° N
Meteor 2-3 Rocket 4.1 01:10:11 16° S 01:14:49 64° E 01:20:34 10° NNE
CZ-2C R/B 2.9 01:11:03 18° S 01:15:05 57° W 01:20:35 10° NNW
Cosmos 1898 Rocket 4.3 01:14:04 12° SW 01:18:37 45° NW 01:23:39 10° NNE
Cosmos 1606 Rocket 4.4 01:16:37 10° NNW 01:20:35 36° W 01:23:12 18° SSW
Cosmos 1048 Rocket 4.0 01:15:37 10° NNW 01:21:01 87° WSW 01:26:23 10° SSE
Cosmos 2058 Rocket 3.0 01:17:23 10° NNW 01:21:49 86° WSW 01:25:28 15° S
Cosmos 1315 Rocket 2.6 01:18:16 10° NNW 01:22:05 89° ENE 01:25:07 16° SSE
Cosmos 1655 Rocket 4.1 01:20:19 17° SSW 01:25:25 75° WNW 01:31:51 10° N
IDEFIX/ARIANE 42P 3.1 01:22:41 10° NNE 01:27:47 51° E 01:32:15 13° S
Lacrosse 5 rocket 2.3 01:30:20 10° WNW 01:34:11 49° N 01:38:01 10° E
CZ-2C R/B 3.2 01:30:33 10° N 01:35:24 60° WNW 01:39:09 16° SW
Cosmos 2219 4.1 01:32:32 10° NNW 01:38:07 52° NE 01:43:39 10° SE
Meteor 1-26 Rocket 4.1 01:33:35 10° NNW 01:39:02 88° W 01:44:26 10° S
Cosmos 2360 4.2 01:36:32 16° SSW 01:41:12 83° ESE 01:46:56 10° NNE
CZ-4C R/B 2.7 01:37:35 10° WSW 01:42:14 54° NNW 01:48:15 10° NE
ADEOS II 4.0 01:39:30 10° NE 01:43:40 24° E 01:47:49 10° SE
Cosmos 1862 4.1 01:42:22 16° SW 01:44:54 36° WNW 01:48:21 10° N
Cosmos 2263 Rocket 2.7 01:39:49 10° NNW 01:45:29 65° NE 01:51:04 10° SE
Cosmos 1867 3.7 01:40:43 12° SW 01:45:46 75° NW 01:51:17 10° NE
Cosmos 2369 Rocket 4.5 01:43:00 10° WNW 01:47:08 20° NNW 01:51:15 10° NNE
SL-16 R/B 4.3 01:42:48 10° ESE 01:48:18 34° NE 01:53:50 10° N
Gbstr 26 Del rocket 4.1 01:44:12 10° W 01:50:17 62° SSW 01:57:32 10° ESE
Cosmos 2297 Rocket 2.8 01:46:53 10° NW 01:52:02 37° WSW 01:56:44 12° S
CZ-2D R/B 3.2 01:50:21 10° NNE 01:55:15 37° E 02:00:04 10° SSE
SL-19 R/B 4.5 01:49:36 10° NNE 01:55:21 87° WNW 02:00:57 13° SSW
Cosmos 1892 Rocket 4.3 01:55:42 14° SW 01:59:06 40° WNW 02:03:12 10° N
MOZ.5/SAFIR/RUBIN 5/SL-8 3.8 01:56:44 10° S 02:01:20 67° WSW 02:05:59 10° NNW
BREEZE-M DEB (TANK) 2.7 01:59:21 10° W 02:01:36 22° SSW 02:03:26 10° SSE
Cosmos 44 4.4 01:58:59 10° W 02:03:00 35° NNW 02:07:09 10° NE
Meteor 2-6 Rocket 4.4 01:59:26 10° NNW 02:05:07 84° ENE 02:10:56 10° SSE
RESURS DK-1 3.8 02:05:18 10° WNW 02:08:09 19° WSW 02:10:15 13° SW
Cosmos 1758 Rocket 3.6 02:05:25 11° S 02:09:35 80° E 02:14:01 10° NNE
Resurs 1-4 Rocket 2.8 02:04:26 10° NNE 02:09:38 52° E 02:14:48 10° S
Cosmos 1602 Rocket 4.0 02:05:30 10° S 02:09:41 57° E 02:13:56 10° NNE
Cosmos 1980 Rocket 3.1 02:05:35 10° S 02:10:46 41° ESE 02:16:01 10° NE
Nadezhda 1 Rocket 4.0 02:05:15 10° NNW 02:11:36 80° W 02:17:46 10° S
H-2A R/B 4.2 02:09:35 11° SW 02:11:36 15° W 02:13:52 10° NW
ATLAS 5 CENTAUR R/B 4.0 02:08:41 10° NW 02:12:04 27° NNE 02:16:03 10° E
Cosmos 1626 Rocket 3.6 02:12:06 12° SSW 02:16:07 74° WNW 02:20:30 10° N
SeaSat 1 3.1 02:12:01 10° S 02:16:29 35° WSW 02:20:59 10° NW
H-2A R/B 4.4 02:15:10 10° NE 02:18:26 17° E 02:21:38 10° SE
Cosmos 1745 Rocket 4.2 02:12:58 10° S 02:19:18 81° E 02:25:42 10° NNE
Cosmos 1697 Rocket 2.7 02:14:32 12° SSW 02:19:54 89° ESE 02:25:37 10° NNE
Cosmos 614 Rocket 3.9 02:16:35 10° NNW 02:21:38 72° WSW 02:26:39 10° SSE
FENGYUN 3A 3.7 02:16:49 10° NNE 02:22:15 85° ESE 02:27:40 10° SSW
BlueWalker 3 1.9 02:19:03 10° W 02:22:37 51° SSW 02:26:10 10° SE
Cosmos 2227 Rocket 2.6 02:18:17 10° NW 02:23:39 44° WSW 02:28:59 10° S
MSX 4.0 02:19:53 10° NNE 02:25:35 68° WNW 02:31:16 10° SSW
Cosmos-2242 4.1 02:22:18 10° NNW 02:25:54 28° W 02:29:26 10° SSW
ISS -3.1 02:26:25 10° W 02:29:28 33° SSW 02:32:32 10° SE
Okean 1 3.3 02:26:22 10° NNW 02:30:03 57° W 02:33:42 10° S
H-2A R/B 2.0 02:26:04 10° NNE 02:30:13 84° WNW 02:34:27 10° SSW
Cosmos 1709 Rocket 4.2 02:27:15 10° S 02:33:37 77° E 02:39:58 10° NNE
ATLAS 2AS CENTAUR R/B 2.7 02:29:36 10° NW 02:36:26 80° SW 02:43:07 10° SE
USA 290 2.2 02:34:04 10° NNW 02:37:22 83° WSW 02:40:40 10° SSE
Okean 1-7 Rocket 3.7 02:35:50 10° S 02:40:17 87° E 02:44:48 10° NNE
SAR-Lupe-3 4.1 02:37:31 10° SSE 02:40:27 82° ENE 02:43:24 10° NNW
NPP 4.0 02:36:39 10° N 02:41:55 55° WNW 02:47:09 10° SW
ALOS 2.6 02:38:28 10° NNE 02:43:02 62° ESE 02:47:33 10° S
USA 32 4.5 02:39:58 10° SSW 02:45:02 49° WNW 02:50:08 10° N
Cosmos 1844 Rocket 4.0 02:39:40 10° NNW 02:45:08 46° NE 02:50:31 10° ESE
Cosmos 2221 2.7 02:42:32 10° NNW 02:46:43 54° W 02:50:52 10° S
Cosmos 1743 3.6 02:47:30 10° SSE 02:50:40 40° E 02:53:51 10° NNE
Cosmos 1125 Rocket 3.7 02:46:51 10° SW 02:52:07 67° WNW 02:57:23 10° NNE
Cosmos 192 4.5 02:47:33 10° SSW 02:52:28 78° ESE 02:57:26 10° NNE
Cosmos 2298 Rocket 4.4 02:49:42 10° S 02:54:56 63° ESE 03:00:12 10° NNE
